This is the latest recevied weather packets stored in our database for station/object AI5KP-13. If no packets are shown the sender has not sent any weather packets the latest 10 day(s).
| Time | Temp. | Humidity | Pressure | Rain* | Wind** | Luminosity | Snow |
|---|---|---|---|---|---|---|---|
| 1777497057 | 21.67° C | 53% | 1014.6 hPa | 0 mm | - | 493 W/m² | - |
| 1777496754 | 21.67° C | 53% | 1014.7 hPa | 0 mm | - | 518 W/m² | - |
| 1777496451 | 20.56° C | 54% | 1014.9 hPa | 0 mm | - | 582 W/m² | - |
| 1777496148 | 20.56° C | 53% | 1015.2 hPa | 0 mm | - | 422 W/m² | - |
| 1777495844 | 20° C | 57% | 1015.2 hPa | 0 mm | - | 284 W/m² | - |
| 1777495539 | 20° C | 54% | 1015.3 hPa | 0 mm | - | 388 W/m² | - |
| 1777495235 | 21.11° C | 62% | 1015.6 hPa | 0 mm | - | 352 W/m² | - |
| 1777494933 | 20.56° C | 54% | 1015.7 hPa | 0 mm | - | 508 W/m² | - |
| 1777494630 | 20° C | 58% | 1015.9 hPa | 0 mm | - | 521 W/m² | - |
| 1777494328 | 20° C | 58% | 1015.8 hPa | 0 mm | - | 177 W/m² | - |
| 1777494024 | 21.11° C | 55% | 1015.9 hPa | 0 mm | - | 262 W/m² | - |
| 1777493722 | 19.44° C | 56% | 1016 hPa | 0 mm | - | 719 W/m² | - |
| 1777493420 | 19.44° C | 56% | 1016.3 hPa | 0 mm | - | 207 W/m² | - |
| 1777493115 | 20.56° C | 54% | 1016 hPa | 0 mm | - | 197 W/m² | - |
| 1777492812 | 20.56° C | 55% | 1016.2 hPa | 0 mm | - | 308 W/m² | - |
| 1777492509 | 21.11° C | 55% | 1016.4 hPa | 0 mm | - | 471 W/m² | - |
| 1777492205 | 21.67° C | 54% | 1016.3 hPa | 0 mm | - | 318 W/m² | - |
| 1777491902 | 20.56° C | 53% | 1016.2 hPa | 0 mm | - | 768 W/m² | - |
| 1777491598 | 20.56° C | 57% | 1016.4 hPa | 0 mm | - | 307 W/m² | - |
| 1777491296 | 20.56° C | 55% | 1016.2 hPa | 0 mm | - | 712 W/m² | - |
| 1777490992 | 21.11° C | 57% | 1016.3 hPa | 0 mm | - | 451 W/m² | - |
| 1777490688 | 21.11° C | 55% | 1016.3 hPa | 0 mm | - | 699 W/m² | - |
| 1777490384 | 21.11° C | 54% | 1016.3 hPa | 0 mm | - | 767 W/m² | - |
| 1777490082 | 20.56° C | 55% | 1016.3 hPa | 0 mm | - | 818 W/m² | - |
| 1777489779 | 20.56° C | 56% | 1016.1 hPa | 0 mm | - | 770 W/m² | - |
* Rain latest hour (hover to see other rain measurements)
** Current wind speed in m/s (hover to see current wind gust speed)